EW0706 Weather Reports


Display with metric or nautical units.
time (UTC)temp
F
wind
direction
speed
MPH
gust
MPH
rain 1hr
in
rain 24hr
in
rain mn
in
humidity
%
barometer
mb
20260903063312 93 0.0 0.0 0.00 0.00 0.00 27 1011.1
20260903062240 93 0.0 0.0 0.00 0.00 0.00 27 1011.1
20260903061239 94 0.0 0.0 0.00 0.00 0.00 27 1011.4
20260903060239 94 0.0 0.0 0.00 0.00 0.00 28 1011.4
20260903055238 94 0.0 0.0 0.00 0.00 0.00 29 1011.5
20260903051443 95 0.0 0.0 0.00 0.00 0.00 31 1011.4
20260903050442 95 0.0 0.0 0.00 0.00 0.00 31 1011.1
20260903045409 96 0.0 0.0 0.00 0.00 0.00 30 1011.1
20260903044409 96 0.0 0.0 0.00 0.00 0.00 30 1011.1
20260903043408 96 0.0 0.0 0.00 0.00 0.00 30 1011.1
20260903042407 96 0.0 0.0 0.00 0.00 0.00 30 1011.1
20260903041406 97 0.0 0.0 0.00 0.00 0.00 29 1011.1
20260903040334 97 0.0 0.0 0.00 0.00 0.00 29 1011.1
20260903035302 97 0.0 0.0 0.00 0.00 0.00 29 1011.0
20260903034300 97 0.0 0.0 0.00 0.00 0.00 29 1010.7
20260903033229 97 0.0 0.0 0.00 0.00 0.00 29 1010.6
20260903032228 98 0.0 0.0 0.00 0.00 0.00 28 1010.6
20260903031125 98 0.0 0.0 0.00 0.00 0.00 28 1010.3
20260903030124 98 0.0 0.0 0.00 0.00 0.00 28 1010.2
20260903025123 98 0.0 0.0 0.00 0.00 0.00 28 1010.2
20260903024122 98 0.0 0.0 0.00 0.00 0.00 27 1010.2
20260903023122 98 0.0 0.0 0.00 0.00 0.00 27 1010.2
20260903022121 99 0.0 0.0 0.00 0.00 0.00 27 1010.2
20260903021120 99 0.0 0.0 0.00 0.00 0.00 27 1009.9
20260903020017 99 0.0 0.0 0.00 0.00 0.00 26 1009.8
20260903014945 99 0.0 0.0 0.00 0.00 0.00 26 1009.8
20260903013944 100 0.0 0.0 0.00 0.00 0.00 26 1009.8
20260903012943 100 0.0 0.0 0.00 0.00 0.00 26 1009.5
20260903011912 100 0.0 0.0 0.00 0.00 0.00 26 1009.5
20260903010911 101 0.0 0.0 0.00 0.00 0.00 26 1009.5
20260903005910 102 0.0 0.0 0.00 0.00 0.00 26 1009.6
20260903004909 102 0.0 0.0 0.00 0.00 0.00 25 1009.6
20260903003908 102 0.0 0.0 0.00 0.00 0.00 25 1009.5
20260903002907 102 0.0 0.0 0.00 0.00 0.00 26 1009.9
20260903001906 102 0.0 0.0 0.00 0.00 0.00 25 1009.6
20260903000905 102 0.0 0.0 0.00 0.00 0.00 25 1009.9
20260902235833 103 0.0 0.0 0.00 0.00 0.00 24 1010.0
20260902234801 103 0.0 0.0 0.00 0.00 0.00 24 1010.0
20260902233800 103 0.0 0.0 0.00 0.00 0.00 24 1010.3
20260902232759 103 0.0 0.0 0.00 0.00 0.00 24 1010.3
20260902231759 102 0.0 0.0 0.00 0.00 0.00 24 1010.2
20260902230758 102 0.0 0.0 0.00 0.00 0.00 25 1010.2
20260902225757 103 0.0 0.0 0.00 0.00 0.00 24 1010.3
20260902224756 104 0.0 0.0 0.00 0.00 0.00 23 1010.7
20260902223756 103 0.0 0.0 0.00 0.00 0.00 24 1010.6
20260902222754 102 0.0 0.0 0.00 0.00 0.00 24 1011.0
20260902221754 102 0.0 0.0 0.00 0.00 0.00 23 1011.0
20260902220752 103 0.0 0.0 0.00 0.00 0.00 23 1011.0
20260902215752 102 0.0 0.0 0.00 0.00 0.00 23 1011.0
20260902214751 103 0.0 0.0 0.00 0.00 0.00 22 1011.4
20260902213750 102 0.0 0.0 0.00 0.00 0.00 23 1011.3
20260902212749 102 0.0 0.0 0.00 0.00 0.00 24 1011.7
20260902211748 104 0.0 0.0 0.00 0.00 0.00 22 1011.4
20260902210747 104 0.0 0.0 0.00 0.00 0.00 23 1011.8
20260902205746 103 0.0 0.0 0.00 0.00 0.00 23 1012.1
20260902204745 102 0.0 0.0 0.00 0.00 0.00 23 1012.0
20260902203744 103 0.0 0.0 0.00 0.00 0.00 22 1012.4
20260902202743 103 0.0 0.0 0.00 0.00 0.00 22 1012.5
20260902201741 103 0.0 0.0 0.00 0.00 0.00 23 1012.5
20260902200704 103 0.0 0.0 0.00 0.00 0.00 23 1012.8
20260902195703 102 0.0 0.0 0.00 0.00 0.00 25 1012.8
20260902194702 101 0.0 0.0 0.00 0.00 0.00 25 1013.1
20260902193701 102 0.0 0.0 0.00 0.00 0.00 25 1013.5
20260902192700 102 0.0 0.0 0.00 0.00 0.00 25 1013.5
20260902191700 102 0.0 0.0 0.00 0.00 0.00 26 1013.9
20260902190659 101 0.0 0.0 0.00 0.00 0.00 26 1013.9
20260902185658 101 0.0 0.0 0.00 0.00 0.00 26 1013.9
20260902184657 101 0.0 0.0 0.00 0.00 0.00 27 1014.2
20260902183656 100 0.0 0.0 0.00 0.00 0.00 27 1014.2
20260902182655 100 0.0 0.0 0.00 0.00 0.00 27 1014.5
20260902181521 99 0.0 0.0 0.00 0.00 0.00 28 1014.5
20260902180520 100 0.0 0.0 0.00 0.00 0.00 28 1014.5
20260902175519 99 0.0 0.0 0.00 0.00 0.00 28 1014.5
20260902174518 99 0.0 0.0 0.00 0.00 0.00 28 1014.5
20260902173517 98 0.0 0.0 0.00 0.00 0.00 30 1014.8
20260902172517 97 0.0 0.0 0.00 0.00 0.00 31 1014.8
20260902171516 97 0.0 0.0 0.00 0.00 0.00 31 1014.8
20260902170444 97 0.0 0.0 0.00 0.00 0.00 34 1014.8
20260902165443 97 0.0 0.0 0.00 0.00 0.00 34 1014.8
20260902164411 96 0.0 0.0 0.00 0.00 0.00 35 1014.8
20260902163410 96 0.0 0.0 0.00 0.00 0.00 36 1014.8
20260902162409 96 0.0 0.0 0.00 0.00 0.00 36 1014.4
20260902161409 95 0.0 0.0 0.00 0.00 0.00 36 1014.7
20260902160407 94 0.0 0.0 0.00 0.00 0.00 36 1014.7
20260902155407 93 0.0 0.0 0.00 0.00 0.00 39 1014.7
20260902154405 92 0.0 0.0 0.00 0.00 0.00 40 1014.3
20260902153334 91 0.0 0.0 0.00 0.00 0.00 40 1014.3
20260902152333 91 0.0 0.0 0.00 0.00 0.00 40 1014.3
20260902151332 90 0.0 0.0 0.00 0.00 0.00 42 1014.2
20260902150331 90 0.0 0.0 0.00 0.00 0.00 42 1014.2
20260902145157 89 0.0 0.0 0.00 0.00 0.00 42 1013.9
20260902144054 88 0.0 0.0 0.00 0.00 0.00 43 1013.8
20260902143053 88 0.0 0.0 0.00 0.00 0.00 43 1013.9
20260902142052 89 0.0 0.0 0.00 0.00 0.00 43 1013.9
20260902141051 88 0.0 0.0 0.00 0.00 0.00 44 1013.9
20260902140050 87 0.0 0.0 0.00 0.00 0.00 44 1013.5
20260902135049 86 0.0 0.0 0.00 0.00 0.00 45 1013.5
20260902134048 85 0.0 0.0 0.00 0.00 0.00 46 1013.5
20260902133047 85 0.0 0.0 0.00 0.00 0.00 46 1013.5
20260902132015 85 0.0 0.0 0.00 0.00 0.00 46 1013.2
20260902131014 85 0.0 0.0 0.00 0.00 0.00 46 1013.2
20260902130013 85 0.0 0.0 0.00 0.00 0.00 45 1013.2
20260902125012 85 0.0 0.0 0.00 0.00 0.00 45 1013.2
20260902124012 85 0.0 0.0 0.00 0.00 0.00 44 1012.9
20260902123011 85 0.0 0.0 0.00 0.00 0.00 44 1012.9
20260902122010 85 0.0 0.0 0.00 0.00 0.00 44 1012.6
20260902121009 85 0.0 0.0 0.00 0.00 0.00 44 1012.6
20260902120008 86 0.0 0.0 0.00 0.00 0.00 44 1012.6
20260902115007 86 0.0 0.0 0.00 0.00 0.00 44 1012.0
20260902114007 85 0.0 0.0 0.00 0.00 0.00 44 1012.0
20260902113005 85 0.0 0.0 0.00 0.00 0.00 44 1012.0
20260902112005 85 0.0 0.0 0.00 0.00 0.00 44 1012.0
20260902111004 85 0.0 0.0 0.00 0.00 0.00 44 1012.0
20260902110004 86 0.0 0.0 0.00 0.00 0.00 44 1012.0
20260902105002 86 0.0 0.0 0.00 0.00 0.00 43 1012.0
20260902104001 86 0.0 0.0 0.00 0.00 0.00 42 1012.0
20260902103001 86 0.0 0.0 0.00 0.00 0.00 42 1012.1
20260902102000 87 0.0 0.0 0.00 0.00 0.00 41 1012.1
20260902100959 87 0.0 0.0 0.00 0.00 0.00 41 1012.1
20260902095958 87 0.0 0.0 0.00 0.00 0.00 40 1012.1
20260902094958 88 0.0 0.0 0.00 0.00 0.00 40 1012.2
20260902093956 88 0.0 0.0 0.00 0.00 0.00 40 1012.2
20260902092955 88 0.0 0.0 0.00 0.00 0.00 40 1012.2
20260902091955 89 0.0 0.0 0.00 0.00 0.00 39 1012.2
20260902090923 88 0.0 0.0 0.00 0.00 0.00 39 1012.2
20260902085922 88 0.0 0.0 0.00 0.00 0.00 39 1012.2
20260902084921 89 0.0 0.0 0.00 0.00 0.00 39 1012.2
20260902083848 89 0.0 0.0 0.00 0.00 0.00 38 1012.3
20260902082847 90 0.0 0.0 0.00 0.00 0.00 37 1012.3
20260902081816 90 0.0 0.0 0.00 0.00 0.00 36 1012.4
20260902080815 91 0.0 0.0 0.00 0.00 0.00 36 1012.4
20260902075814 91 0.0 0.0 0.00 0.00 0.00 36 1012.4
20260902074742 91 0.0 0.0 0.00 0.00 0.00 36 1012.4
20260902073741 91 0.0 0.0 0.00 0.00 0.00 36 1012.4
20260902072740 92 0.0 0.0 0.00 0.00 0.00 35 1012.5
20260902071739 92 0.0 0.0 0.00 0.00 0.00 34 1012.2
20260902070738 93 0.0 0.0 0.00 0.00 0.00 33 1012.2
20260902065738 93 0.0 0.0 0.00 0.00 0.00 33 1012.2
20260902064736 93 0.0 0.0 0.00 0.00 0.00 33 1011.9